SPACEBEE-90 (48947 NORAD) Tracking and Keplerian Element Data

This shows tracking and keplerian element data for the satellite.

Feedback or suggestion? Click here.




ElementValue
Catalog48947
NameSPACEBEE-90
Epoch Orbit1385
Epoch Day268.35208462
Epoch Year2021
RAAN36.0273
Inclination97.5195
Eccentricity0.0016455
Argument of Perigee300.8196
Mean Anonmoly59.1416
Mean Motion15.14700211
Decay Rate7.871E-05
L11 48947U 21059BW 21268.35208462 .00007871 00000-0 42720-3 0 9999
L22 48947 97.5195 36.0273 0016455 300.8196 59.1416 15.14700211 13854

Live tracking and technical data element details for SPACEBEE-90 (NORAD 48947). SPACEBEE-90 can be tracked NOW for your location showing map with azimuth and elevation plus other details from your city location.

Track the satellite on the map from your city or location and see movement details for azimuth, elevation, latitude, longitude, range, height, and movement on the map or in text.







IsCatalogInMostPopularTable: catalog: 48947, numindb: 18
Update: records affected: 1



GetName: 48947 SPACEBEE-90

Hit Count: updated at: Sun, 26 Sep 2021 16:15:21 GMT